SCP
0 0 0 0 0 0 0 0 0 0 0 0 0 0 0 0 0 0 0 0 0 0 0 0 0 0 0 0 0 0 0 0 0 0 0 0 0 0 0 0 0 0 0
1 0 0 0 0 0 0 0 0 0 0 0 0 0 0 0 0 0 0 0 0 0 0 0 0 0 0 0 0 0 0 0 0 0 0 0 0 0 0 0 0 0 0
0 0 0 0 0 0 0 0 0 0 0 0 0 0 0 0 0 0 0 0 0 0 0 0 0 0 0 0 0 0 0 0 0 0 0 0 0 0 0 0 0 0 0
0 0 0 0 0 0 0 0 0 0 0 0 0 0 0 0 0 0 0 0 0 0 0 0 0 1 0 0 0 0 0 0 0 0 0 0 0 0 0 0 0 0 0
0 0 0 0 0 0 0 0 0 0 0 0 0 0 0 0 0 0 0 0 0 0 1 0 1 0 0 0 0 0 0 0 0 0 0 0 0 0 0 0 0 0 0
0 0 0 0 0 0 0 0 0 0 0 1 0 0 0 0 0 0 0 0 0 0 1 1 1 0 0 0 0 0 0 0 0 0 0 0 0 0 0 0 0 0 0
0 0 0 0 0 0 0 1 1 1 1 1 1 1 1 1 1 1 1 1 0 1 1 1 1 1 0 0 0 0 0 0 0 0 0 0 0 0 0 0 0 0 0
0 0 0 1 0 1 1 1 1 1 1 1 2 2 2 1 1 1 1 1 1 1 1 1 1 0 0 0 0 0 0 0 0 0 0 0 0 0 0 0 0 0 0
1 2 2 1 1 1 1 1 1 1 2 1 1 2 2 1 1 1 1 1 1 1 1 1 0 0 0 1 1 0 0 0 0 0 0 0 0 0 0 0 0 0 0
2 2 2 2 2 2 2 2 1 2 3 3 1 1 1 1 1 1 1 0 1 1 1 1 1 1 1 1 0 0 0 0 0 0 0 0 0 0 0 0 0 0 0
2 2 2 2 2 2 2 2 2 2 2 4 2 1 1 1 1 1 0 1 0 1 0 0 0 1 1 1 0 0 0 0 0 0 0 0 0 0 0 0 0 0 0
2 2 2 3 3 3 2 2 2 2 3 2 2 1 1 1 1 1 1 1 1 1 0 0 0 0 0 0 0 0 0 0 0 0 0 -0 0 0 0 0 0 0 0
3 3 4 3 4 3 2 2 2 2 3 2 1 1 1 1 1 1 1 1 1 0 0 0 0 0 0 0 0 0 0 0 0 0 0 0 0 0 0 0 0 0 -0
3 3 2 3 3 2 2 2 2 2 2 1 1 1 0 0 0 1 1 1 0 0 0 0 0 0 0 0 0 0 0 0 0 0 0 0 0 0 0 0 0 -0 -0
2 2 2 3 2 2 2 2 3 2 2 1 1 0 0 0 0 1 1 0 0 0 0 0 0 0 0 0 0 0 0 0 0 0 0 0 0 0 0 0 0 0 -0
1 2 2 2 3 3 3 3 3 2 2 1 1 0 0 1 1 1 0 0 0 0 0 0 0 0 0 0 0 0 0 0 0 0 0 0 0 0 0 0 0 0 0
1 1 2 2 3 4 3 3 3 2 1 1 1 0 1 1 1 0 0 0 0 0 0 0 0 0 0 0 0 0 0 0 0 0 0 0 0 0 0 0 0 0 0
1 1 1 2 4 3 3 3 2 1 1 1 0 0 0 0 1 0 0 0 0 0 0 0 0 0 0 0 0 0 0 0 0 0 0 0 0 0 0 0 -0 0 0
1 1 2 3 4 4 3 2 1 1 1 0 1 0 1 0 1 0 0 0 0 0 0 0 0 0 0 0 0 0 0 0 0 0 0 0 0 0 0 0 -0 0 -0
2 2 2 3 3 3 2 2 1 1 1 1 1 1 1 0 0 0 0 0 0 0 0 0 0 0 0 0 0 0 0 0 0 0 0 0 0 0 0 0 0 0 0
2 2 2 3 3 2 2 1 1 1 1 1 1 0 0 0 0 0 0 0 0 0 0 0 0 0 0 0 0 0 0 0 0 0 0 0 0 0 0 0 0 0 -0
2 2 2 3 2 2 0 0 0 1 0 0 0 0 0 0 0 0 0 0 0 0 0 0 0 0 0 0 0 0 0 0 0 0 0 0 0 0 0 0 0 0 0
3 3 2 2 2 0 0 0 0 0 0 0 0 0 0 0 0 0 0 0 0 0 0 0 0 0 0 0 0 0 0 0 0 0 0 0 0 0 0 0 0 0 0
2 3 2 1 0 0 0 0 0 0 0 0 0 0 0 0 0 0 0 0 0 0 0 0 0 0 0 0 0 0 0 0 0 0 0 0 0 0 0 0 0 0 0
2 1 0 0 0 0 0 0 0 0 0 0 0 0 0 0 0 0 0 0 0 0 0 0 0 0 0 0 0 0 0 0 0 0 0 0 0 0 0 0 0 0 0
0 0 0 0 0 0 0 0 0 0 0 0 0 0 0 0 0 0 0 0 0 0 0 0 0 0 0 0 0 0 0 0 0 0 0 0 0 0 0 0 0 0 0
Wind_Speed_500mb
52 52 51 46 39 37 37 35 38 36 38 38 36 34 37 39 38 38 38 35 36 34 26 24 24 23 27 30 26 20 20 23 28 31 33 35 37 41 39 36 36 38 34
54 51 52 49 43 38 36 34 34 34 35 37 37 35 35 35 36 37 38 40 38 38 32 28 30 31 30 28 25 39 27 22 27 31 33 36 39 40 38 37 35 36 33
57 55 49 57 50 39 33 34 34 33 35 37 36 34 34 31 30 33 36 38 38 39 34 32 34 37 33 23 35 27 27 22 28 31 34 35 37 38 36 36 33 34 35
61 48 52 62 52 46 36 33 34 33 34 35 37 33 32 31 28 29 30 29 31 33 31 29 29 33 35 35 30 29 26 22 26 32 36 35 35 35 33 35 35 32 34
66 36 74 62 53 49 42 33 35 33 36 34 36 34 34 33 29 29 29 26 25 29 30 31 37 38 36 34 32 31 24 23 25 34 38 37 35 36 35 35 33 34 33
64 33 76 58 56 55 46 36 32 31 36 33 36 37 36 36 34 33 32 33 30 31 36 34 34 35 35 37 38 34 30 26 26 31 39 40 38 35 34 35 35 36 36
62 68 72 70 54 56 45 37 34 34 37 34 37 38 36 37 38 35 35 38 37 37 38 39 36 36 36 36 36 35 31 32 29 26 36 42 40 36 33 33 35 32 37
76 72 80 67 61 53 49 39 37 37 39 34 36 26 14 21 35 38 40 37 37 41 41 42 41 38 35 34 32 31 33 36 30 27 33 41 41 36 33 31 32 32 33
90 82 81 69 60 58 46 40 39 41 41 37 38 21 9 15 6 15 27 31 30 33 38 38 36 34 33 34 33 33 34 36 32 30 25 40 40 37 33 30 30 31 30
89 88 69 65 65 57 45 46 45 46 44 41 39 45 38 28 13 9 19 25 27 23 20 26 29 30 33 36 38 37 35 38 35 32 28 35 38 36 33 28 31 26 23
84 84 68 57 57 49 49 50 52 49 47 45 42 41 42 46 42 36 29 23 26 22 25 27 25 24 29 33 33 33 33 43 39 31 28 32 36 36 33 35 36 24 19
80 75 64 57 52 50 51 51 53 51 46 45 41 42 41 43 36 37 33 33 33 23 28 26 25 27 29 31 30 28 28 35 36 31 30 32 33 38 35 35 33 29 22
77 77 68 58 53 48 48 52 52 51 47 45 40 42 38 41 38 37 31 24 22 19 21 21 24 24 26 24 25 25 31 34 35 30 33 34 33 34 31 32 34 37 34
74 71 65 60 53 45 51 53 49 45 42 41 37 38 35 34 34 39 26 23 15 17 18 17 21 20 18 17 18 24 29 35 32 32 31 36 35 34 30 34 34 45 43
75 64 63 62 49 52 49 46 44 42 40 40 36 38 33 39 38 36 30 22 18 16 14 8 8 13 14 19 17 25 25 29 29 35 38 38 37 31 32 37 35 48 46
67 58 58 58 52 51 45 43 44 40 39 38 38 38 41 39 34 31 28 26 22 17 14 10 10 12 16 18 20 23 33 31 27 28 37 37 34 30 33 37 40 51 44
48 46 52 55 55 54 47 47 44 36 40 38 41 44 41 35 32 30 28 27 23 20 16 15 15 13 13 15 15 17 26 34 31 33 33 32 32 30 34 39 36 49 33
50 51 50 55 58 51 50 48 42 44 40 39 45 44 40 34 33 31 29 27 23 22 16 14 14 12 10 13 16 20 31 35 33 34 32 30 27 32 35 36 44 47 43
56 53 54 55 57 53 51 44 39 43 40 42 43 38 35 34 34 32 30 27 25 24 22 14 13 15 16 18 18 23 30 31 33 33 30 26 24 24 31 35 41 44 44
57 54 52 55 53 54 49 41 44 43 42 41 37 35 33 32 32 31 28 27 27 26 25 18 16 20 23 22 22 25 28 30 35 35 32 29 27 25 28 38 41 38 42
55 53 54 53 54 52 45 45 45 42 43 39 36 32 31 30 31 30 29 31 30 29 28 24 24 27 33 30 30 31 32 34 36 38 35 30 30 37 26 40 38 40 39
55 56 55 57 57 48 46 45 43 43 39 36 32 29 28 28 30 30 30 31 29 30 33 28 28 33 40 35 33 33 36 38 38 40 38 39 33 32 34 43 40 39 36
59 57 57 56 53 52 49 43 40 39 37 33 31 30 30 29 30 30 32 34 33 32 28 24 26 32 38 42 38 36 34 33 34 40 37 36 38 30 32 32 36 34 29
57 60 56 55 57 58 50 45 42 37 34 31 31 30 28 28 29 30 28 30 35 36 35 29 22 19 31 36 38 34 35 35 41 43 40 41 38 37 33 33 33 33 25
59 60 58 64 64 55 48 44 39 34 31 30 26 25 25 26 27 27 28 28 33 36 37 32 24 20 21 27 41 38 38 32 39 40 39 34 39 37 31 29 30 28 29
66 67 68 62 55 51 48 40 34 31 29 26 23 22 24 26 25 24 23 26 31 38 35 33 31 28 25 25 38 37 33 30 33 38 42 28 40 36 30 35 31 30 32
Wind_Direction_500mb
244 251 253 257 263 268 272 274 273 272 278 282 282 282 277 273 268 262 258 250 246 242 242 249 269 249 248 250 255 268 276 252 241 237 237 234 236 230 230 235 230 233 236
255 259 263 265 267 271 274 272 269 270 272 276 283 286 281 272 266 262 260 252 247 240 242 255 270 265 261 263 266 280 270 255 242 237 235 234 232 234 235 241 242 238 233
260 267 272 274 267 265 263 262 264 265 269 274 279 283 282 272 264 267 263 251 247 240 239 248 264 271 272 271 286 266 266 262 244 237 233 231 232 234 232 234 238 240 231
262 269 267 276 272 264 249 253 261 266 269 271 275 277 277 264 263 267 255 243 243 229 233 255 266 271 275 276 273 262 254 261 249 235 232 231 231 230 232 229 232 237 233
254 272 272 272 264 260 247 251 260 266 273 268 270 268 269 261 254 258 246 239 233 237 240 255 261 268 268 267 270 261 251 259 253 236 231 230 231 231 233 233 232 230 237
249 238 267 264 265 255 246 252 261 267 270 263 264 262 262 258 249 248 246 242 246 248 252 258 266 262 261 267 261 256 250 255 255 241 232 229 228 230 234 238 237 231 232
239 246 251 259 262 257 254 257 258 265 268 261 258 260 260 257 249 248 251 249 249 254 258 258 267 267 265 264 258 249 247 249 252 251 235 228 227 229 231 237 235 234 229
244 247 252 256 258 261 256 260 265 268 265 258 250 245 261 258 250 251 251 250 250 258 261 261 267 264 262 257 254 243 243 241 246 252 240 226 224 225 228 234 228 230 226
248 253 259 260 256 258 261 269 272 266 265 260 247 231 204 231 195 243 237 239 247 259 262 262 262 261 257 251 249 248 245 236 241 246 245 224 220 222 224 232 229 217 228
248 254 263 255 251 254 262 274 272 266 258 256 246 236 235 237 236 243 232 235 258 262 251 267 266 264 259 255 256 254 243 233 240 236 249 221 217 221 221 223 208 212 228
254 263 259 249 246 253 263 274 271 268 257 248 244 242 236 240 242 249 262 261 261 261 271 275 273 268 259 256 259 256 243 233 230 225 233 208 216 218 216 215 210 212 214
257 257 251 248 247 252 263 271 272 261 255 246 239 238 249 244 239 240 248 258 263 267 269 267 271 279 268 260 258 251 234 217 212 207 211 202 213 216 213 215 210 206 190
252 254 250 248 245 252 263 268 268 258 244 240 238 249 239 242 246 252 252 251 257 257 263 268 278 279 267 256 254 241 220 209 209 212 205 205 210 211 211 213 208 202 184
249 255 254 251 242 249 260 266 261 243 232 232 237 230 229 237 239 240 239 235 238 246 259 260 278 261 255 247 244 223 220 212 209 203 206 205 209 207 206 206 205 199 183
250 257 248 242 235 252 255 256 239 229 232 231 224 222 228 231 238 235 233 230 231 246 250 258 240 251 252 237 237 219 212 205 211 212 208 206 207 203 204 198 195 192 182
250 238 235 233 239 247 246 231 226 224 232 218 222 219 221 226 226 224 229 235 234 232 242 234 254 263 256 245 243 227 212 209 210 208 197 200 204 204 205 197 186 189 189
226 223 228 231 245 239 226 222 223 227 208 215 216 220 220 220 223 225 228 233 231 236 224 249 264 265 245 231 232 210 203 199 196 193 193 198 203 201 197 190 186 192 185
223 225 230 237 232 226 221 219 218 206 207 216 217 217 216 217 222 225 227 226 227 233 223 226 250 245 245 206 202 198 185 185 185 184 187 194 197 194 191 193 191 204 198
223 225 228 227 222 219 215 214 220 201 212 215 213 213 219 222 224 225 219 220 225 227 226 221 242 212 164 158 165 162 172 182 181 181 183 182 183 182 183 185 179 171 181
223 223 225 219 215 211 211 212 198 200 210 203 208 215 221 223 225 216 217 221 225 222 218 204 216 200 188 175 182 178 174 178 176 180 177 176 180 179 185 176 170 171 183
222 220 212 206 205 207 207 198 193 205 196 203 211 214 220 219 217 220 223 227 223 219 213 204 208 200 196 185 185 184 179 174 170 174 174 171 163 168 185 174 174 186 184
210 201 200 202 200 199 194 189 198 190 202 204 206 213 220 220 222 226 227 226 224 224 218 206 211 212 205 196 193 189 184 173 166 177 180 169 167 170 169 181 190 182 178
193 195 193 193 194 188 181 180 190 197 196 204 216 225 228 232 230 235 234 228 217 211 218 232 240 219 210 201 195 187 180 177 178 174 182 172 170 173 174 181 182 186 187
188 187 187 188 183 177 177 183 187 194 205 216 224 230 236 232 223 227 221 217 218 214 209 208 216 238 221 207 205 188 178 182 174 170 173 163 168 176 184 185 195 191 194
179 181 184 177 175 175 180 185 191 200 211 220 222 225 224 212 210 217 220 220 221 211 208 205 203 200 190 199 197 189 186 172 178 181 183 184 182 185 191 204 204 205 207
174 173 171 171 175 177 180 185 195 208 212 210 214 217 212 206 216 227 222 213 215 204 204 190 185 171 172 177 186 194 183 182 180 187 196 196 196 192 197 213 218 217 216
Wind_Speed_850mb
52 52 51 46 39 37 37 35 38 36 38 38 36 34 37 39 38 38 38 35 36 34 26 24 24 23 27 30 26 20 20 23 28 31 33 35 37 41 39 36 36 38 34
54 51 52 49 43 38 36 34 34 34 35 37 37 35 35 35 36 37 38 40 38 38 32 28 30 31 30 28 25 39 27 22 27 31 33 36 39 40 38 37 35 36 33
57 55 49 57 50 39 33 34 34 33 35 37 36 34 34 31 30 33 36 38 38 39 34 32 34 37 33 23 35 27 27 22 28 31 34 35 37 38 36 36 33 34 35
61 48 52 62 52 46 36 33 34 33 34 35 37 33 32 31 28 29 30 29 31 33 31 29 29 33 35 35 30 29 26 22 26 32 36 35 35 35 33 35 35 32 34
66 36 74 62 53 49 42 33 35 33 36 34 36 34 34 33 29 29 29 26 25 29 30 31 37 38 36 34 32 31 24 23 25 34 38 37 35 36 35 35 33 34 33
64 33 76 58 56 55 46 36 32 31 36 33 36 37 36 36 34 33 32 33 30 31 36 34 34 35 35 37 38 34 30 26 26 31 39 40 38 35 34 35 35 36 36
62 68 72 70 54 56 45 37 34 34 37 34 37 38 36 37 38 35 35 38 37 37 38 39 36 36 36 36 36 35 31 32 29 26 36 42 40 36 33 33 35 32 37
76 72 80 67 61 53 49 39 37 37 39 34 36 26 14 21 35 38 40 37 37 41 41 42 41 38 35 34 32 31 33 36 30 27 33 41 41 36 33 31 32 32 33
90 82 81 69 60 58 46 40 39 41 41 37 38 21 9 15 6 15 27 31 30 33 38 38 36 34 33 34 33 33 34 36 32 30 25 40 40 37 33 30 30 31 30
89 88 69 65 65 57 45 46 45 46 44 41 39 45 38 28 13 9 19 25 27 23 20 26 29 30 33 36 38 37 35 38 35 32 28 35 38 36 33 28 31 26 23
84 84 68 57 57 49 49 50 52 49 47 45 42 41 42 46 42 36 29 23 26 22 25 27 25 24 29 33 33 33 33 43 39 31 28 32 36 36 33 35 36 24 19
80 75 64 57 52 50 51 51 53 51 46 45 41 42 41 43 36 37 33 33 33 23 28 26 25 27 29 31 30 28 28 35 36 31 30 32 33 38 35 35 33 29 22
77 77 68 58 53 48 48 52 52 51 47 45 40 42 38 41 38 37 31 24 22 19 21 21 24 24 26 24 25 25 31 34 35 30 33 34 33 34 31 32 34 37 34
74 71 65 60 53 45 51 53 49 45 42 41 37 38 35 34 34 39 26 23 15 17 18 17 21 20 18 17 18 24 29 35 32 32 31 36 35 34 30 34 34 45 43
75 64 63 62 49 52 49 46 44 42 40 40 36 38 33 39 38 36 30 22 18 16 14 8 8 13 14 19 17 25 25 29 29 35 38 38 37 31 32 37 35 48 46
67 58 58 58 52 51 45 43 44 40 39 38 38 38 41 39 34 31 28 26 22 17 14 10 10 12 16 18 20 23 33 31 27 28 37 37 34 30 33 37 40 51 44
48 46 52 55 55 54 47 47 44 36 40 38 41 44 41 35 32 30 28 27 23 20 16 15 15 13 13 15 15 17 26 34 31 33 33 32 32 30 34 39 36 49 33
50 51 50 55 58 51 50 48 42 44 40 39 45 44 40 34 33 31 29 27 23 22 16 14 14 12 10 13 16 20 31 35 33 34 32 30 27 32 35 36 44 47 43
56 53 54 55 57 53 51 44 39 43 40 42 43 38 35 34 34 32 30 27 25 24 22 14 13 15 16 18 18 23 30 31 33 33 30 26 24 24 31 35 41 44 44
57 54 52 55 53 54 49 41 44 43 42 41 37 35 33 32 32 31 28 27 27 26 25 18 16 20 23 22 22 25 28 30 35 35 32 29 27 25 28 38 41 38 42
55 53 54 53 54 52 45 45 45 42 43 39 36 32 31 30 31 30 29 31 30 29 28 24 24 27 33 30 30 31 32 34 36 38 35 30 30 37 26 40 38 40 39
55 56 55 57 57 48 46 45 43 43 39 36 32 29 28 28 30 30 30 31 29 30 33 28 28 33 40 35 33 33 36 38 38 40 38 39 33 32 34 43 40 39 36
59 57 57 56 53 52 49 43 40 39 37 33 31 30 30 29 30 30 32 34 33 32 28 24 26 32 38 42 38 36 34 33 34 40 37 36 38 30 32 32 36 34 29
57 60 56 55 57 58 50 45 42 37 34 31 31 30 28 28 29 30 28 30 35 36 35 29 22 19 31 36 38 34 35 35 41 43 40 41 38 37 33 33 33 33 25
59 60 58 64 64 55 48 44 39 34 31 30 26 25 25 26 27 27 28 28 33 36 37 32 24 20 21 27 41 38 38 32 39 40 39 34 39 37 31 29 30 28 29
66 67 68 62 55 51 48 40 34 31 29 26 23 22 24 26 25 24 23 26 31 38 35 33 31 28 25 25 38 37 33 30 33 38 42 28 40 36 30 35 31 30 32
Wind_Direction_850mb
244 251 253 257 263 268 272 274 273 272 278 282 282 282 277 273 268 262 258 250 246 242 242 249 269 249 248 250 255 268 276 252 241 237 237 234 236 230 230 235 230 233 236
255 259 263 265 267 271 274 272 269 270 272 276 283 286 281 272 266 262 260 252 247 240 242 255 270 265 261 263 266 280 270 255 242 237 235 234 232 234 235 241 242 238 233
260 267 272 274 267 265 263 262 264 265 269 274 279 283 282 272 264 267 263 251 247 240 239 248 264 271 272 271 286 266 266 262 244 237 233 231 232 234 232 234 238 240 231
262 269 267 276 272 264 249 253 261 266 269 271 275 277 277 264 263 267 255 243 243 229 233 255 266 271 275 276 273 262 254 261 249 235 232 231 231 230 232 229 232 237 233
254 272 272 272 264 260 247 251 260 266 273 268 270 268 269 261 254 258 246 239 233 237 240 255 261 268 268 267 270 261 251 259 253 236 231 230 231 231 233 233 232 230 237
249 238 267 264 265 255 246 252 261 267 270 263 264 262 262 258 249 248 246 242 246 248 252 258 266 262 261 267 261 256 250 255 255 241 232 229 228 230 234 238 237 231 232
239 246 251 259 262 257 254 257 258 265 268 261 258 260 260 257 249 248 251 249 249 254 258 258 267 267 265 264 258 249 247 249 252 251 235 228 227 229 231 237 235 234 229
244 247 252 256 258 261 256 260 265 268 265 258 250 245 261 258 250 251 251 250 250 258 261 261 267 264 262 257 254 243 243 241 246 252 240 226 224 225 228 234 228 230 226
248 253 259 260 256 258 261 269 272 266 265 260 247 231 204 231 195 243 237 239 247 259 262 262 262 261 257 251 249 248 245 236 241 246 245 224 220 222 224 232 229 217 228
248 254 263 255 251 254 262 274 272 266 258 256 246 236 235 237 236 243 232 235 258 262 251 267 266 264 259 255 256 254 243 233 240 236 249 221 217 221 221 223 208 212 228
254 263 259 249 246 253 263 274 271 268 257 248 244 242 236 240 242 249 262 261 261 261 271 275 273 268 259 256 259 256 243 233 230 225 233 208 216 218 216 215 210 212 214
257 257 251 248 247 252 263 271 272 261 255 246 239 238 249 244 239 240 248 258 263 267 269 267 271 279 268 260 258 251 234 217 212 207 211 202 213 216 213 215 210 206 190
252 254 250 248 245 252 263 268 268 258 244 240 238 249 239 242 246 252 252 251 257 257 263 268 278 279 267 256 254 241 220 209 209 212 205 205 210 211 211 213 208 202 184
249 255 254 251 242 249 260 266 261 243 232 232 237 230 229 237 239 240 239 235 238 246 259 260 278 261 255 247 244 223 220 212 209 203 206 205 209 207 206 206 205 199 183
250 257 248 242 235 252 255 256 239 229 232 231 224 222 228 231 238 235 233 230 231 246 250 258 240 251 252 237 237 219 212 205 211 212 208 206 207 203 204 198 195 192 182
250 238 235 233 239 247 246 231 226 224 232 218 222 219 221 226 226 224 229 235 234 232 242 234 254 263 256 245 243 227 212 209 210 208 197 200 204 204 205 197 186 189 189
226 223 228 231 245 239 226 222 223 227 208 215 216 220 220 220 223 225 228 233 231 236 224 249 264 265 245 231 232 210 203 199 196 193 193 198 203 201 197 190 186 192 185
223 225 230 237 232 226 221 219 218 206 207 216 217 217 216 217 222 225 227 226 227 233 223 226 250 245 245 206 202 198 185 185 185 184 187 194 197 194 191 193 191 204 198
223 225 228 227 222 219 215 214 220 201 212 215 213 213 219 222 224 225 219 220 225 227 226 221 242 212 164 158 165 162 172 182 181 181 183 182 183 182 183 185 179 171 181
223 223 225 219 215 211 211 212 198 200 210 203 208 215 221 223 225 216 217 221 225 222 218 204 216 200 188 175 182 178 174 178 176 180 177 176 180 179 185 176 170 171 183
222 220 212 206 205 207 207 198 193 205 196 203 211 214 220 219 217 220 223 227 223 219 213 204 208 200 196 185 185 184 179 174 170 174 174 171 163 168 185 174 174 186 184
210 201 200 202 200 199 194 189 198 190 202 204 206 213 220 220 222 226 227 226 224 224 218 206 211 212 205 196 193 189 184 173 166 177 180 169 167 170 169 181 190 182 178
193 195 193 193 194 188 181 180 190 197 196 204 216 225 228 232 230 235 234 228 217 211 218 232 240 219 210 201 195 187 180 177 178 174 182 172 170 173 174 181 182 186 187
188 187 187 188 183 177 177 183 187 194 205 216 224 230 236 232 223 227 221 217 218 214 209 208 216 238 221 207 205 188 178 182 174 170 173 163 168 176 184 185 195 191 194
179 181 184 177 175 175 180 185 191 200 211 220 222 225 224 212 210 217 220 220 221 211 208 205 203 200 190 199 197 189 186 172 178 181 183 184 182 185 191 204 204 205 207
174 173 171 171 175 177 180 185 195 208 212 210 214 217 212 206 216 227 222 213 215 204 204 190 185 171 172 177 186 194 183 182 180 187 196 196 196 192 197 213 218 217 216